| time (UTC) | temp F | wind direction | speed knots | gust knots | rain 1hr in | rain 24hr in | rain mn in | humidity % | barometer mb |
| 20260905093704 | 62 | 161 | 0.0 | 0.0 | 0.00 | 0.00 | 0.00 | 60 | 1018.4 |
| 20260905093205 | 62 | 161 | 0.0 | 0.0 | 0.00 | 0.00 | 0.00 | 59 | 1018.4 |
| 20260905092704 | 62 | 161 | 0.0 | 0.0 | 0.00 | 0.00 | 0.00 | 59 | 1018.3 |
| 20260905092204 | 62 | 161 | 0.0 | 0.0 | 0.00 | 0.00 | 0.00 | 59 | 1018.3 |
| 20260905091704 | 63 | 161 | 0.0 | 0.0 | 0.00 | 0.00 | 0.00 | 59 | 1018.3 |
| 20260905091204 | 63 | 161 | 0.0 | 0.0 | 0.00 | 0.00 | 0.00 | 59 | 1018.3 |
| 20260905090704 | 63 | 161 | 0.0 | 0.0 | 0.00 | 0.00 | 0.00 | 58 | 1018.2 |
| 20260905090204 | 63 | 161 | 0.0 | 0.0 | 0.00 | 0.00 | 0.00 | 58 | 1018.2 |
| 20260905085705 | 63 | 161 | 0.0 | 0.0 | 0.00 | 0.00 | 0.00 | 58 | 1018.3 |
| 20260905085204 | 63 | 161 | 0.0 | 0.0 | 0.00 | 0.00 | 0.00 | 58 | 1018.3 |
| 20260905084705 | 63 | 161 | 0.0 | 0.0 | 0.00 | 0.00 | 0.00 | 57 | 1018.3 |
| 20260905083704 | 64 | 161 | 0.0 | 0.0 | 0.00 | 0.00 | 0.00 | 57 | 1018.3 |
| 20260905083204 | 64 | 161 | 0.0 | 0.0 | 0.00 | 0.00 | 0.00 | 56 | 1018.3 |
| 20260905081705 | 64 | 161 | 0.0 | 0.0 | 0.00 | 0.00 | 0.00 | 55 | 1018.4 |
| 20260905081204 | 65 | 161 | 0.0 | 0.0 | 0.00 | 0.00 | 0.00 | 55 | 1018.4 |
| 20260905080705 | 65 | 161 | 0.0 | 0.0 | 0.00 | 0.00 | 0.00 | 54 | 1018.4 |
| 20260905080204 | 65 | 161 | 0.0 | 0.0 | 0.00 | 0.00 | 0.00 | 54 | 1018.4 |
| 20260905075704 | 65 | 161 | 0.0 | 0.0 | 0.00 | 0.00 | 0.00 | 53 | 1018.3 |
| 20260905075205 | 65 | 161 | 0.0 | 0.0 | 0.00 | 0.00 | 0.00 | 54 | 1018.3 |
| 20260905074204 | 65 | 161 | 0.0 | 0.0 | 0.00 | 0.00 | 0.00 | 53 | 1018.4 |
| 20260905073704 | 65 | 161 | 0.0 | 0.0 | 0.00 | 0.00 | 0.00 | 54 | 1018.4 |
| 20260905073204 | 66 | 161 | 0.0 | 0.9 | 0.00 | 0.00 | 0.00 | 54 | 1018.4 |
| 20260905072703 | 66 | 161 | 0.0 | 0.0 | 0.00 | 0.00 | 0.00 | 52 | 1018.5 |
| 20260905072204 | 66 | 161 | 0.0 | 0.0 | 0.00 | 0.00 | 0.00 | 53 | 1018.4 |
| 20260905070704 | 66 | 161 | 0.0 | 0.0 | 0.00 | 0.00 | 0.00 | 52 | 1018.4 |
| 20260905070204 | 66 | 161 | 0.0 | 0.0 | 0.00 | 0.00 | 0.00 | 52 | 1018.4 |
| 20260905065204 | 66 | 161 | 0.0 | 0.0 | 0.00 | 0.00 | 0.00 | 52 | 1018.4 |
| 20260905064704 | 66 | 161 | 0.0 | 1.7 | 0.00 | 0.00 | 0.00 | 51 | 1018.4 |
| 20260905064204 | 66 | 161 | 0.0 | 0.9 | 0.00 | 0.00 | 0.00 | 52 | 1018.3 |
| 20260905063704 | 66 | 161 | 0.0 | 0.9 | 0.00 | 0.00 | 0.00 | 52 | 1018.3 |
| 20260905063205 | 66 | 161 | 0.0 | 0.9 | 0.00 | 0.00 | 0.00 | 53 | 1018.2 |
| 20260905062704 | 67 | 161 | 0.0 | 0.9 | 0.00 | 0.00 | 0.00 | 53 | 1018.2 |
| 20260905062204 | 67 | 161 | 0.0 | 0.0 | 0.00 | 0.00 | 0.00 | 53 | 1018.2 |
| 20260905061704 | 67 | 161 | 0.0 | 0.9 | 0.00 | 0.00 | 0.00 | 53 | 1018.2 |
| 20260905060705 | 68 | 161 | 0.0 | 0.0 | 0.00 | 0.00 | 0.00 | 52 | 1018.2 |
| 20260905060204 | 68 | 161 | 0.0 | 0.0 | 0.00 | 0.00 | 0.00 | 51 | 1018.2 |
| 20260905055203 | 68 | 161 | 0.0 | 0.0 | 0.00 | 0.00 | 0.00 | 51 | 1018.1 |
| 20260905054704 | 68 | 161 | 0.0 | 0.0 | 0.00 | 0.00 | 0.00 | 51 | 1018.1 |
| 20260905054203 | 69 | 161 | 0.0 | 0.0 | 0.00 | 0.00 | 0.00 | 51 | 1018.1 |
| 20260905053204 | 69 | 161 | 0.0 | 0.0 | 0.00 | 0.00 | 0.00 | 51 | 1018.0 |
| 20260905052704 | 69 | 161 | 0.0 | 0.0 | 0.00 | 0.00 | 0.00 | 51 | 1017.9 |
| 20260905051704 | 70 | 161 | 0.0 | 0.0 | 0.00 | 0.00 | 0.00 | 50 | 1018.0 |
| 20260905051204 | 70 | 161 | 0.0 | 0.0 | 0.00 | 0.00 | 0.00 | 50 | 1017.9 |
| 20260905050704 | 70 | 161 | 0.0 | 0.0 | 0.00 | 0.00 | 0.00 | 49 | 1017.9 |
| 20260905050203 | 70 | 161 | 0.0 | 0.0 | 0.00 | 0.00 | 0.00 | 49 | 1017.9 |
| 20260905045704 | 71 | 161 | 0.0 | 0.0 | 0.00 | 0.00 | 0.00 | 49 | 1018.0 |
| 20260905045204 | 71 | 161 | 0.0 | 0.0 | 0.00 | 0.00 | 0.00 | 49 | 1018.0 |
| 20260905044703 | 71 | 161 | 0.0 | 0.9 | 0.00 | 0.00 | 0.00 | 48 | 1017.9 |
| 20260905044204 | 72 | 161 | 0.0 | 1.7 | 0.00 | 0.00 | 0.00 | 47 | 1017.9 |
| 20260905043704 | 72 | 32 | 0.0 | 0.9 | 0.00 | 0.00 | 0.00 | 47 | 1017.9 |
| 20260905042704 | 73 | 32 | 0.0 | 0.0 | 0.00 | 0.00 | 0.00 | 46 | 1017.9 |
| 20260905042203 | 73 | 32 | 0.0 | 0.0 | 0.00 | 0.00 | 0.00 | 45 | 1017.9 |
| 20260905041704 | 74 | 32 | 0.0 | 0.9 | 0.00 | 0.00 | 0.00 | 45 | 1017.9 |
| 20260905041205 | 74 | 32 | 0.0 | 0.0 | 0.00 | 0.00 | 0.00 | 44 | 1017.9 |
| 20260905040204 | 75 | 32 | 0.0 | 0.9 | 0.00 | 0.00 | 0.00 | 42 | 1017.9 |
| 20260905035704 | 75 | 32 | 0.0 | 0.9 | 0.00 | 0.00 | 0.00 | 42 | 1017.9 |
| 20260905035204 | 76 | 32 | 0.0 | 0.9 | 0.00 | 0.00 | 0.00 | 40 | 1017.9 |
| 20260905034704 | 76 | 32 | 0.0 | 0.0 | 0.00 | 0.00 | 0.00 | 40 | 1017.9 |
| 20260905034204 | 77 | 32 | 0.0 | 0.0 | 0.00 | 0.00 | 0.00 | 40 | 1017.9 |
| 20260905033703 | 77 | 32 | 0.0 | 0.9 | 0.00 | 0.00 | 0.00 | 38 | 1017.9 |
| 20260905033204 | 78 | 32 | 0.0 | 0.0 | 0.00 | 0.00 | 0.00 | 37 | 1017.9 |
| 20260905032204 | 79 | 32 | 0.0 | 0.0 | 0.00 | 0.00 | 0.00 | 36 | 1017.8 |
| 20260905031704 | 79 | 32 | 0.0 | 0.0 | 0.00 | 0.00 | 0.00 | 36 | 1017.8 |
| 20260905031203 | 80 | 32 | 0.0 | 0.0 | 0.00 | 0.00 | 0.00 | 34 | 1017.8 |
| 20260905030704 | 80 | 32 | 0.0 | 0.0 | 0.00 | 0.00 | 0.00 | 34 | 1017.8 |
| 20260905025704 | 81 | 32 | 0.0 | 0.9 | 0.00 | 0.00 | 0.00 | 32 | 1017.6 |
| 20260905025204 | 81 | 32 | 0.0 | 0.0 | 0.00 | 0.00 | 0.00 | 31 | 1017.6 |
| 20260905024703 | 82 | 32 | 0.0 | 0.0 | 0.00 | 0.00 | 0.00 | 30 | 1017.5 |
| 20260905024204 | 82 | 32 | 0.0 | 0.0 | 0.00 | 0.00 | 0.00 | 30 | 1017.5 |
| 20260905023704 | 82 | 32 | 0.0 | 0.0 | 0.00 | 0.00 | 0.00 | 29 | 1017.5 |
| 20260905023204 | 83 | 32 | 0.0 | 0.0 | 0.00 | 0.00 | 0.00 | 29 | 1017.4 |
| 20260905022703 | 83 | 32 | 0.0 | 0.0 | 0.00 | 0.00 | 0.00 | 28 | 1017.3 |
| 20260905022204 | 83 | 32 | 0.0 | 0.0 | 0.00 | 0.00 | 0.00 | 28 | 1017.2 |
| 20260905021707 | 83 | 32 | 0.0 | 0.0 | 0.00 | 0.00 | 0.00 | 28 | 1017.1 |
| 20260905021205 | 83 | 32 | 0.9 | 2.6 | 0.00 | 0.00 | 0.00 | 27 | 1017.0 |
| 20260905020706 | 83 | 32 | 0.9 | 4.3 | 0.00 | 0.00 | 0.00 | 27 | 1017.0 |
| 20260905020206 | 84 | 102 | 0.9 | 5.2 | 0.00 | 0.00 | 0.00 | 27 | 1016.9 |
| 20260905015705 | 84 | 23 | 0.0 | 1.7 | 0.00 | 0.00 | 0.00 | 27 | 1016.9 |
| 20260905015206 | 84 | 23 | 0.9 | 2.6 | 0.00 | 0.00 | 0.00 | 27 | 1016.8 |
| 20260905014706 | 84 | 340 | 0.9 | 2.6 | 0.00 | 0.00 | 0.00 | 27 | 1016.8 |
| 20260905013706 | 84 | 12 | 0.9 | 4.3 | 0.00 | 0.00 | 0.00 | 26 | 1016.8 |
| 20260905013205 | 85 | 99 | 0.0 | 1.7 | 0.00 | 0.00 | 0.00 | 26 | 1016.8 |
| 20260905012705 | 85 | 99 | 0.0 | 1.7 | 0.00 | 0.00 | 0.00 | 26 | 1016.7 |
| 20260905012206 | 85 | 103 | 0.0 | 0.9 | 0.00 | 0.00 | 0.00 | 26 | 1016.8 |
| 20260905011706 | 86 | 103 | 0.0 | 0.9 | 0.00 | 0.00 | 0.00 | 25 | 1016.7 |
| 20260905011206 | 86 | 102 | 0.0 | 2.6 | 0.00 | 0.00 | 0.00 | 26 | 1016.7 |
| 20260905010706 | 87 | 96 | 0.0 | 0.9 | 0.00 | 0.00 | 0.00 | 25 | 1016.7 |
| 20260905010205 | 87 | 96 | 0.0 | 0.9 | 0.00 | 0.00 | 0.00 | 25 | 1016.7 |
| 20260905005705 | 87 | 96 | 0.9 | 0.9 | 0.00 | 0.00 | 0.00 | 25 | 1016.7 |
| 20260905005205 | 88 | 124 | 0.0 | 2.6 | 0.00 | 0.00 | 0.00 | 25 | 1016.7 |
| 20260905004705 | 88 | 92 | 0.9 | 2.6 | 0.00 | 0.00 | 0.00 | 24 | 1016.7 |
| 20260905004205 | 88 | 122 | 0.9 | 2.6 | 0.00 | 0.00 | 0.00 | 24 | 1016.7 |
| 20260905003705 | 89 | 110 | 0.9 | 5.2 | 0.00 | 0.00 | 0.00 | 23 | 1016.7 |
| 20260905003206 | 89 | 111 | 1.7 | 6.1 | 0.00 | 0.00 | 0.00 | 23 | 1016.7 |
| 20260905002707 | 89 | 102 | 0.0 | 1.7 | 0.00 | 0.00 | 0.00 | 24 | 1016.7 |
| 20260905002205 | 90 | 101 | 0.9 | 2.6 | 0.00 | 0.00 | 0.00 | 23 | 1016.6 |
| 20260905001705 | 90 | 111 | 0.9 | 2.6 | 0.00 | 0.00 | 0.00 | 24 | 1016.6 |
| 20260905001205 | 91 | 112 | 0.9 | 2.6 | 0.00 | 0.00 | 0.00 | 23 | 1016.5 |
| 20260905000706 | 91 | 111 | 0.9 | 5.2 | 0.00 | 0.00 | 0.00 | 22 | 1016.5 |
| 20260904235706 | 92 | 121 | 1.7 | 2.6 | 0.00 | 0.00 | 0.00 | 21 | 1016.5 |
| 20260904235205 | 92 | 99 | 1.7 | 4.3 | 0.00 | 0.00 | 0.00 | 22 | 1016.5 |
| 20260904234705 | 92 | 90 | 1.7 | 2.6 | 0.00 | 0.00 | 0.00 | 21 | 1016.5 |
| 20260904234205 | 93 | 140 | 0.9 | 2.6 | 0.00 | 0.00 | 0.00 | 21 | 1016.4 |
| 20260904233705 | 93 | 68 | 0.9 | 2.6 | 0.00 | 0.00 | 0.00 | 21 | 1016.4 |
| 20260904233205 | 93 | 62 | 1.7 | 4.3 | 0.00 | 0.00 | 0.00 | 20 | 1016.3 |
| 20260904232705 | 93 | 135 | 0.9 | 2.6 | 0.00 | 0.00 | 0.00 | 22 | 1016.3 |
| 20260904232205 | 94 | 112 | 0.0 | 2.6 | 0.00 | 0.00 | 0.00 | 23 | 1016.2 |
| 20260904231705 | 94 | 108 | 1.7 | 7.8 | 0.00 | 0.00 | 0.00 | 20 | 1016.2 |
| 20260904231206 | 94 | 121 | 0.0 | 2.6 | 0.00 | 0.00 | 0.00 | 21 | 1016.2 |
| 20260904230705 | 94 | 114 | 1.7 | 5.2 | 0.00 | 0.00 | 0.00 | 19 | 1016.2 |
| 20260904230205 | 95 | 111 | 0.9 | 2.6 | 0.00 | 0.00 | 0.00 | 20 | 1016.3 |
| 20260904225706 | 95 | 24 | 1.7 | 2.6 | 0.00 | 0.00 | 0.00 | 18 | 1016.2 |
| 20260904225206 | 95 | 115 | 0.0 | 1.7 | 0.00 | 0.00 | 0.00 | 20 | 1016.3 |
| 20260904224705 | 95 | 117 | 1.7 | 6.1 | 0.00 | 0.00 | 0.00 | 17 | 1016.3 |
| 20260904224205 | 95 | 117 | 0.0 | 2.6 | 0.00 | 0.00 | 0.00 | 19 | 1016.3 |
| 20260904223705 | 95 | 26 | 0.9 | 2.6 | 0.00 | 0.00 | 0.00 | 20 | 1016.3 |
| 20260904223205 | 95 | 96 | 0.0 | 2.6 | 0.00 | 0.00 | 0.00 | 18 | 1016.3 |
| 20260904221705 | 94 | 112 | 1.7 | 2.6 | 0.00 | 0.00 | 0.00 | 17 | 1016.4 |
| 20260904221205 | 95 | 169 | 0.0 | 1.7 | 0.00 | 0.00 | 0.00 | 16 | 1016.4 |
| 20260904220205 | 95 | 148 | 0.0 | 1.7 | 0.00 | 0.00 | 0.00 | 18 | 1016.5 |
| 20260904215705 | 94 | 98 | 0.9 | 2.6 | 0.00 | 0.00 | 0.00 | 19 | 1016.5 |
| 20260904215205 | 94 | 187 | 0.9 | 2.6 | 0.00 | 0.00 | 0.00 | 19 | 1016.6 |
| 20260904214705 | 94 | 65 | 1.7 | 2.6 | 0.00 | 0.00 | 0.00 | 17 | 1016.6 |
| 20260904214205 | 94 | 147 | 1.7 | 4.3 | 0.00 | 0.00 | 0.00 | 17 | 1016.6 |
| 20260904213705 | 94 | 50 | 2.6 | 5.2 | 0.00 | 0.00 | 0.00 | 16 | 1016.6 |
| 20260904213205 | 94 | 150 | 0.9 | 1.7 | 0.00 | 0.00 | 0.00 | 18 | 1016.7 |
| 20260904212706 | 93 | 200 | 0.9 | 2.6 | 0.00 | 0.00 | 0.00 | 19 | 1016.7 |
| 20260904212205 | 93 | 246 | 0.9 | 2.6 | 0.00 | 0.00 | 0.00 | 18 | 1016.8 |
| 20260904211705 | 93 | 181 | 0.9 | 4.3 | 0.00 | 0.00 | 0.00 | 19 | 1016.8 |
| 20260904211205 | 93 | 48 | 0.9 | 2.6 | 0.00 | 0.00 | 0.00 | 19 | 1016.8 |
| 20260904210705 | 92 | 49 | 1.7 | 7.0 | 0.00 | 0.00 | 0.00 | 18 | 1016.9 |
| 20260904210205 | 93 | 55 | 2.6 | 7.8 | 0.00 | 0.00 | 0.00 | 16 | 1017.0 |
| 20260904205705 | 93 | 74 | 1.7 | 2.6 | 0.00 | 0.00 | 0.00 | 17 | 1017.0 |
| 20260904205205 | 93 | 147 | 0.9 | 4.3 | 0.00 | 0.00 | 0.00 | 21 | 1017.1 |
| 20260904204705 | 93 | 38 | 1.7 | 2.6 | 0.00 | 0.00 | 0.00 | 16 | 1017.2 |
| 20260904204205 | 93 | 46 | 1.7 | 4.3 | 0.00 | 0.00 | 0.00 | 17 | 1017.2 |
| 20260904202205 | 92 | 116 | 1.7 | 2.6 | 0.00 | 0.00 | 0.00 | 19 | 1017.4 |
| 20260904201205 | 92 | 46 | 1.7 | 2.6 | 0.00 | 0.00 | 0.00 | 18 | 1017.5 |
| 20260904200705 | 92 | 90 | 0.9 | 2.6 | 0.00 | 0.00 | 0.00 | 17 | 1017.6 |
| 20260904200205 | 92 | 73 | 1.7 | 5.2 | 0.00 | 0.00 | 0.00 | 19 | 1017.7 |
| 20260904195205 | 92 | 57 | 0.9 | 4.3 | 0.00 | 0.00 | 0.00 | 18 | 1017.8 |
| 20260904194706 | 92 | 117 | 0.9 | 2.6 | 0.00 | 0.00 | 0.00 | 19 | 1017.8 |
| 20260904194206 | 92 | 130 | 0.9 | 2.6 | 0.00 | 0.00 | 0.00 | 19 | 1017.8 |
| 20260904193705 | 91 | 151 | 0.9 | 2.6 | 0.00 | 0.00 | 0.00 | 19 | 1017.8 |
| 20260904193205 | 91 | 135 | 0.9 | 4.3 | 0.00 | 0.00 | 0.00 | 21 | 1017.9 |
| 20260904192705 | 91 | 161 | 1.7 | 4.3 | 0.00 | 0.00 | 0.00 | 19 | 1017.9 |
| 20260904192205 | 90 | 194 | 0.9 | 5.2 | 0.00 | 0.00 | 0.00 | 22 | 1018.0 |
| 20260904191705 | 90 | 113 | 1.7 | 2.6 | 0.00 | 0.00 | 0.00 | 19 | 1018.1 |
| 20260904190705 | 90 | 126 | 0.9 | 5.2 | 0.00 | 0.00 | 0.00 | 19 | 1018.1 |
| 20260904190205 | 90 | 142 | 0.9 | 4.3 | 0.00 | 0.00 | 0.00 | 21 | 1018.2 |
| 20260904184205 | 89 | 117 | 2.6 | 5.2 | 0.00 | 0.00 | 0.00 | 19 | 1018.3 |
| 20260904183705 | 89 | 95 | 0.9 | 2.6 | 0.00 | 0.00 | 0.00 | 20 | 1018.4 |
| 20260904183204 | 89 | 143 | 1.7 | 4.3 | 0.00 | 0.00 | 0.00 | 21 | 1018.4 |
| 20260904182704 | 89 | 98 | 2.6 | 5.2 | 0.00 | 0.00 | 0.00 | 19 | 1018.4 |
| 20260904182205 | 89 | 125 | 0.9 | 2.6 | 0.00 | 0.00 | 0.00 | 20 | 1018.5 |
| 20260904181705 | 88 | 100 | 1.7 | 6.1 | 0.00 | 0.00 | 0.00 | 21 | 1018.5 |
| 20260904181204 | 89 | 118 | 1.7 | 6.1 | 0.00 | 0.00 | 0.00 | 19 | 1018.5 |
| 20260904180705 | 89 | 100 | 1.7 | 5.2 | 0.00 | 0.00 | 0.00 | 20 | 1018.6 |
| 20260904180205 | 88 | 124 | 0.9 | 2.6 | 0.00 | 0.00 | 0.00 | 22 | 1018.6 |
| 20260904175205 | 87 | 149 | 0.9 | 5.2 | 0.00 | 0.00 | 0.00 | 21 | 1018.7 |
| 20260904174705 | 87 | 138 | 1.7 | 7.0 | 0.00 | 0.00 | 0.00 | 22 | 1018.7 |
| 20260904173704 | 87 | 168 | 1.7 | 5.2 | 0.00 | 0.00 | 0.00 | 24 | 1018.7 |
| 20260904173205 | 86 | 187 | 1.7 | 6.1 | 0.00 | 0.00 | 0.00 | 25 | 1018.7 |
| 20260904172705 | 86 | 114 | 1.7 | 5.2 | 0.00 | 0.00 | 0.00 | 25 | 1018.7 |
| 20260904172204 | 86 | 141 | 0.9 | 2.6 | 0.00 | 0.00 | 0.00 | 26 | 1018.7 |
| 20260904171705 | 86 | 123 | 0.9 | 2.6 | 0.00 | 0.00 | 0.00 | 25 | 1018.7 |
| 20260904170705 | 85 | 131 | 1.7 | 6.1 | 0.00 | 0.00 | 0.00 | 25 | 1018.8 |
| 20260904170205 | 85 | 145 | 1.7 | 4.3 | 0.00 | 0.00 | 0.00 | 25 | 1018.8 |
| 20260904164705 | 84 | 157 | 0.9 | 2.6 | 0.00 | 0.00 | 0.00 | 25 | 1018.9 |
| 20260904164205 | 83 | 110 | 1.7 | 2.6 | 0.00 | 0.00 | 0.00 | 24 | 1018.9 |
| 20260904163704 | 83 | 140 | 0.0 | 1.7 | 0.00 | 0.00 | 0.00 | 26 | 1018.9 |
| 20260904163205 | 82 | 140 | 0.9 | 2.6 | 0.00 | 0.00 | 0.00 | 26 | 1018.9 |
| 20260904162705 | 82 | 154 | 0.9 | 4.3 | 0.00 | 0.00 | 0.00 | 28 | 1018.9 |
| 20260904162205 | 81 | 151 | 1.7 | 5.2 | 0.00 | 0.00 | 0.00 | 29 | 1018.9 |
| 20260904161705 | 81 | 147 | 2.6 | 6.1 | 0.00 | 0.00 | 0.00 | 29 | 1018.9 |
| 20260904161205 | 80 | 153 | 1.7 | 4.3 | 0.00 | 0.00 | 0.00 | 31 | 1018.9 |
| 20260904160704 | 79 | 143 | 0.9 | 2.6 | 0.00 | 0.00 | 0.00 | 33 | 1018.9 |
| 20260904160205 | 79 | 147 | 0.9 | 2.6 | 0.00 | 0.00 | 0.00 | 35 | 1018.8 |
| 20260904155705 | 78 | 144 | 2.6 | 4.3 | 0.00 | 0.00 | 0.00 | 33 | 1018.8 |
| 20260904155205 | 77 | 155 | 1.7 | 5.2 | 0.00 | 0.00 | 0.00 | 34 | 1018.8 |
| 20260904154705 | 76 | 152 | 1.7 | 4.3 | 0.00 | 0.00 | 0.00 | 37 | 1018.7 |
| 20260904154205 | 75 | 154 | 2.6 | 5.2 | 0.00 | 0.00 | 0.00 | 38 | 1018.7 |
| 20260904153204 | 73 | 155 | 1.7 | 2.6 | 0.00 | 0.00 | 0.00 | 45 | 1018.8 |
| 20260904152204 | 70 | 115 | 0.0 | 2.6 | 0.00 | 0.00 | 0.00 | 50 | 1018.8 |
| 20260904151704 | 70 | 115 | 0.9 | 2.6 | 0.00 | 0.00 | 0.00 | 50 | 1018.8 |
| 20260904151205 | 68 | 116 | 0.9 | 2.6 | 0.00 | 0.00 | 0.00 | 53 | 1018.8 |
| 20260904150705 | 67 | 180 | 0.0 | 0.9 | 0.00 | 0.00 | 0.00 | 53 | 1018.7 |
| 20260904150205 | 66 | 180 | 0.0 | 1.7 | 0.00 | 0.00 | 0.00 | 54 | 1018.7 |
| 20260904145705 | 65 | 180 | 1.7 | 2.6 | 0.00 | 0.00 | 0.00 | 55 | 1018.7 |
| 20260904145205 | 65 | 287 | 0.0 | 0.0 | 0.00 | 0.00 | 0.00 | 60 | 1018.8 |
| 20260904144705 | 64 | 287 | 0.0 | 0.9 | 0.00 | 0.00 | 0.00 | 61 | 1018.8 |
| 20260904144205 | 64 | 287 | 0.0 | 0.9 | 0.00 | 0.00 | 0.00 | 62 | 1018.9 |
| 20260904143705 | 63 | 287 | 0.9 | 1.7 | 0.00 | 0.00 | 0.00 | 63 | 1018.9 |
| 20260904142704 | 62 | 287 | 0.0 | 0.0 | 0.00 | 0.00 | 0.00 | 64 | 1018.9 |
| 20260904141705 | 60 | 287 | 0.0 | 1.7 | 0.00 | 0.00 | 0.00 | 65 | 1018.9 |
| 20260904141205 | 59 | 287 | 0.9 | 1.7 | 0.00 | 0.00 | 0.00 | 65 | 1018.8 |
| 20260904140205 | 58 | 287 | 0.0 | 0.0 | 0.00 | 0.00 | 0.00 | 66 | 1018.7 |
| 20260904135704 | 57 | 287 | 0.0 | 0.0 | 0.00 | 0.00 | 0.00 | 67 | 1018.7 |
| 20260904135205 | 57 | 287 | 0.0 | 0.0 | 0.00 | 0.00 | 0.00 | 70 | 1018.6 |
| 20260904134705 | 56 | 287 | 0.0 | 0.0 | 0.00 | 0.00 | 0.00 | 72 | 1018.5 |
| 20260904134205 | 56 | 287 | 0.0 | 0.0 | 0.00 | 0.00 | 0.00 | 70 | 1018.5 |
| 20260904133705 | 55 | 287 | 0.0 | 0.0 | 0.00 | 0.00 | 0.00 | 70 | 1018.3 |
| 20260904133205 | 55 | 287 | 0.0 | 0.0 | 0.00 | 0.00 | 0.00 | 71 | 1018.3 |
| 20260904132705 | 55 | 287 | 0.0 | 0.9 | 0.00 | 0.00 | 0.00 | 71 | 1018.2 |
| 20260904132204 | 54 | 287 | 0.0 | 0.9 | 0.00 | 0.00 | 0.00 | 71 | 1018.1 |
| 20260904131705 | 54 | 287 | 0.0 | 0.9 | 0.00 | 0.00 | 0.00 | 71 | 1018.1 |
| 20260904131205 | 54 | 287 | 0.0 | 0.9 | 0.00 | 0.00 | 0.00 | 72 | 1018.1 |
| 20260904130204 | 54 | 287 | 0.0 | 0.0 | 0.00 | 0.00 | 0.00 | 71 | 1018.2 |
| 20260904125704 | 54 | 287 | 0.0 | 0.0 | 0.00 | 0.00 | 0.00 | 72 | 1018.2 |
| 20260904125205 | 54 | 287 | 0.0 | 0.0 | 0.00 | 0.00 | 0.00 | 71 | 1018.2 |
| 20260904124705 | 54 | 287 | 0.0 | 0.0 | 0.00 | 0.00 | 0.00 | 71 | 1018.1 |
| 20260904124205 | 54 | 287 | 0.0 | 0.0 | 0.00 | 0.00 | 0.00 | 70 | 1018.0 |
| 20260904123205 | 54 | 287 | 0.0 | 0.0 | 0.00 | 0.00 | 0.00 | 71 | 1017.9 |
| 20260904122705 | 55 | 287 | 0.0 | 0.0 | 0.00 | 0.00 | 0.00 | 70 | 1017.9 |
| 20260904122205 | 55 | 287 | 0.0 | 0.0 | 0.00 | 0.00 | 0.00 | 70 | 1017.9 |
| 20260904121705 | 55 | 287 | 0.0 | 0.0 | 0.00 | 0.00 | 0.00 | 70 | 1017.8 |
| 20260904121204 | 55 | 287 | 0.0 | 0.0 | 0.00 | 0.00 | 0.00 | 70 | 1017.7 |
| 20260904120704 | 55 | 287 | 0.0 | 0.0 | 0.00 | 0.00 | 0.00 | 69 | 1017.7 |
| 20260904120204 | 55 | 287 | 0.0 | 0.0 | 0.00 | 0.00 | 0.00 | 68 | 1017.7 |
| 20260904115704 | 55 | 287 | 0.0 | 0.0 | 0.00 | 0.00 | 0.00 | 68 | 1017.7 |
| 20260904115204 | 55 | 287 | 0.0 | 0.0 | 0.00 | 0.00 | 0.00 | 68 | 1017.7 |
| 20260904114705 | 56 | 287 | 0.0 | 0.0 | 0.00 | 0.00 | 0.00 | 67 | 1017.7 |
| 20260904113705 | 56 | 287 | 0.0 | 0.0 | 0.00 | 0.00 | 0.00 | 67 | 1017.7 |
| 20260904113204 | 56 | 287 | 0.0 | 0.0 | 0.00 | 0.00 | 0.00 | 67 | 1017.7 |
| 20260904112705 | 56 | 287 | 0.0 | 0.0 | 0.00 | 0.00 | 0.00 | 67 | 1017.6 |
| 20260904112205 | 56 | 287 | 0.0 | 0.0 | 0.00 | 0.00 | 0.00 | 66 | 1017.6 |
| 20260904111705 | 56 | 287 | 0.0 | 0.0 | 0.00 | 0.00 | 0.00 | 66 | 1017.5 |
| 20260904111204 | 56 | 287 | 0.0 | 0.9 | 0.00 | 0.00 | 0.00 | 66 | 1017.5 |
| 20260904110705 | 56 | 287 | 0.0 | 0.9 | 0.00 | 0.00 | 0.00 | 65 | 1017.5 |
| 20260904110204 | 57 | 287 | 0.0 | 0.0 | 0.00 | 0.00 | 0.00 | 65 | 1017.4 |
| 20260904105704 | 57 | 287 | 0.0 | 0.0 | 0.00 | 0.00 | 0.00 | 65 | 1017.4 |
| 20260904105204 | 57 | 287 | 0.0 | 0.0 | 0.00 | 0.00 | 0.00 | 64 | 1017.3 |
| 20260904104704 | 57 | 287 | 0.0 | 0.0 | 0.00 | 0.00 | 0.00 | 64 | 1017.3 |
| 20260904104204 | 58 | 287 | 0.0 | 0.0 | 0.00 | 0.00 | 0.00 | 63 | 1017.1 |
| 20260904103705 | 58 | 287 | 0.0 | 0.0 | 0.00 | 0.00 | 0.00 | 62 | 1017.0 |
| 20260904103204 | 58 | 287 | 0.0 | 0.0 | 0.00 | 0.00 | 0.00 | 62 | 1017.0 |
| 20260904102705 | 58 | 287 | 0.0 | 0.0 | 0.00 | 0.00 | 0.00 | 61 | 1017.1 |
| 20260904102204 | 58 | 287 | 0.0 | 0.0 | 0.00 | 0.00 | 0.00 | 60 | 1017.1 |
| 20260904101704 | 59 | 287 | 0.0 | 0.0 | 0.00 | 0.00 | 0.00 | 60 | 1017.0 |
| 20260904101204 | 59 | 287 | 0.0 | 0.0 | 0.00 | 0.00 | 0.00 | 60 | 1017.0 |
| 20260904100204 | 59 | 287 | 0.0 | 0.0 | 0.00 | 0.00 | 0.00 | 59 | 1017.1 |
| 20260904095704 | 60 | 287 | 0.0 | 0.0 | 0.00 | 0.00 | 0.00 | 59 | 1017.1 |
| 20260904095204 | 60 | 287 | 0.0 | 0.0 | 0.00 | 0.00 | 0.00 | 58 | 1017.0 |
| 20260904094705 | 60 | 287 | 0.0 | 0.0 | 0.00 | 0.00 | 0.00 | 58 | 1016.9 |
| 20260904094204 | 60 | 287 | 0.0 | 0.9 | 0.00 | 0.00 | 0.00 | 57 | 1016.8 |